When you browse on this site, cookies collect data to enhance your experience and personalize the content and advertising you see.
Visit our Privacy Policy to learn more. By continuing to use the site, you agree to this use of cookies and data.
  • In Hungary
  • List of Countries
  • For 7 days
  • Water Temperature
  • Satellite Maps
  • Weather Map
  • News
  • Weather Widgets
  • user-avatar
    Login

    Hourly Weather Laramie

    Today, 24 February, Sunday

    Time Temperature Precipitation Wind Pressure Humidity
    00:00 -15°C° 0 mm 8 mps 579 mmHg 72%
    01:00 -15°C° 0 mm 8 mps 580 mmHg 71%
    02:00 -15°C° 0 mm 8 mps 580 mmHg 71%
    03:00 -15°C° 0 mm 8 mps 580 mmHg 70%
    04:00 -15°C° 0 mm 8 mps 580 mmHg 70%
    05:00 -15°C° 0 mm 8 mps 581 mmHg 70%
    06:00 -15°C° 0 mm 9 mps 581 mmHg 68%
    07:00 -15°C° 0 mm 9 mps 581 mmHg 67%
    08:00 -14°C° 0 mm 9 mps 581 mmHg 65%
    09:00 -13°C° 0 mm 10 mps 581 mmHg 62%
    10:00 -10°C° 0 mm 10 mps 581 mmHg 60%
    11:00 -8°C° 0 mm 11 mps 581 mmHg 57%
    12:00 -7°C° 0 mm 10 mps 581 mmHg 57%
    13:00 -7°C° 0 mm 10 mps 580 mmHg 56%
    14:00 -5°C° 0 mm 10 mps 579 mmHg 55%
    15:00 -5°C° 0 mm 8 mps 579 mmHg 57%
    16:00 -6°C° 0 mm 7 mps 578 mmHg 60%
    17:00 -5°C° 0 mm 6 mps 577 mmHg 62%
    18:00 -6°C° 0 mm 6 mps 577 mmHg 63%
    19:00 -8°C° 0 mm 6 mps 577 mmHg 64%
    20:00 -9°C° 0 mm 6 mps 577 mmHg 65%
    21:00 -10°C° 0 mm 8 mps 577 mmHg 62%
    22:00 -10°C° 0 mm 9 mps 577 mmHg 59%
    23:00 -9°C° 0 mm 11 mps 577 mmHg 56%

    Tomorrow, 25 February, Monday

    Time Temperature Precipitation Wind Pressure Humidity
    00:00 -9°C° 0 mm 11 mps 577 mmHg 57%
    01:00 -10°C° 0 mm 12 mps 577 mmHg 57%
    02:00 -10°C° 0 mm 12 mps 577 mmHg 58%
    03:00 -10°C° 0 mm 12 mps 576 mmHg 58%
    04:00 -10°C° 0 mm 12 mps 576 mmHg 58%
    05:00 -9°C° 0 mm 11 mps 576 mmHg 58%
    06:00 -8°C° 0 mm 11 mps 577 mmHg 58%
    07:00 -8°C° 0 mm 11 mps 577 mmHg 58%
    08:00 -8°C° 0 mm 11 mps 577 mmHg 57%
    09:00 -6°C° 0 mm 11 mps 577 mmHg 57%
    10:00 -4°C° 0 mm 10 mps 578 mmHg 57%
    11:00 -2°C° 0 mm 10 mps 578 mmHg 57%
    12:00 -1°C° 0 mm 9 mps 578 mmHg 57%
    13:00 0°C° 0 mm 8 mps 578 mmHg 58%
    14:00 0°C° 0 mm 7 mps 577 mmHg 58%
    15:00 +1°C° 0 mm 6 mps 577 mmHg 59%
    16:00 -1°C° 0 mm 6 mps 577 mmHg 60%
    17:00 -1°C° 0 mm 5 mps 577 mmHg 61%
    18:00 -2°C° 0 mm 5 mps 577 mmHg 63%
    19:00 -4°C° 0 mm 5 mps 577 mmHg 65%
    20:00 -5°C° 0 mm 5 mps 577 mmHg 67%
    21:00 -5°C° 0 mm 5 mps 577 mmHg 64%
    22:00 -5°C° 0 mm 5 mps 577 mmHg 61%
    23:00 -6°C° 0 mm 6 mps 577 mmHg 58%

    Day after tomorrow, 26 February, Tuesday

    Time Temperature Precipitation Wind Pressure Humidity
    00:00 -6°C° 0 mm 7 mps 577 mmHg 56%
    01:00 -6°C° 0 mm 9 mps 577 mmHg 54%
    02:00 -5°C° 0 mm 10 mps 578 mmHg 51%
    03:00 -5°C° 0 mm 10 mps 577 mmHg 51%
    04:00 -5°C° 0 mm 9 mps 577 mmHg 51%
    05:00 -5°C° 0 mm 9 mps 577 mmHg 52%
    06:00 -5°C° 0 mm 10 mps 577 mmHg 50%
    07:00 -4°C° 0 mm 11 mps 577 mmHg 49%
    08:00 -3°C° 0 mm 11 mps 577 mmHg 48%
    09:00 -2°C° 0 mm 12 mps 577 mmHg 47%
    10:00 0°C° 0 mm 12 mps 577 mmHg 46%
    11:00 +1°C° 0 mm 13 mps 577 mmHg 45%
    12:00 +1°C° 0 mm 13 mps 577 mmHg 45%
    13:00 +3°C° 0 mm 14 mps 577 mmHg 44%
    14:00 +3°C° 0 mm 14 mps 577 mmHg 44%
    15:00 +1°C° 0 mm 14 mps 577 mmHg 46%
    16:00 0°C° 0 mm 13 mps 577 mmHg 49%
    17:00 -1°C° 0 mm 13 mps 576 mmHg 51%
    18:00 -2°C° 0 mm 12 mps 577 mmHg 54%
    19:00 -2°C° 0 mm 11 mps 577 mmHg 58%
    20:00 -3°C° 0 mm 11 mps 578 mmHg 61%
    21:00 -3°C° 0 mm 10 mps 578 mmHg 64%
    22:00 -4°C° 0 mm 9 mps 579 mmHg 66%
    23:00 -4°C° 0 mm 8 mps 579 mmHg 68%

    27 February, Wednesday

    Time Temperature Precipitation Wind Pressure Humidity
    00:00 -3°C° 0 mm 6 mps 580 mmHg 69%
    01:00 -4°C° 0 mm 5 mps 580 mmHg 71%
    02:00 -3°C° 0 mm 4 mps 580 mmHg 72%
    03:00 -3°C° 0 mm 4 mps 581 mmHg 72%
    04:00 -3°C° 0 mm 4 mps 581 mmHg 72%
    05:00 -3°C° 0 mm 4 mps 582 mmHg 73%
    06:00 -3°C° 0 mm 4 mps 582 mmHg 74%
    07:00 -3°C° 0 mm 4 mps 582 mmHg 75%
    08:00 -4°C° 0 mm 4 mps 582 mmHg 77%
    09:00 -1°C° 0 mm 5 mps 583 mmHg 69%
    10:00 +1°C° 0 mm 5 mps 583 mmHg 61%
    11:00 +3°C° 0 mm 6 mps 583 mmHg 54%
    12:00 +3°C° 0 mm 6 mps 582 mmHg 54%
    13:00 +3°C° 0 mm 6 mps 581 mmHg 53%
    14:00 +5°C° 0 mm 5 mps 580 mmHg 53%
    15:00 +3°C° 0.3 mm 6 mps 580 mmHg 57%
    16:00 +2°C° 0.3 mm 6 mps 579 mmHg 62%
    17:00 +1°C° 0.3 mm 6 mps 579 mmHg 66%
    18:00 0°C° 0 mm 7 mps 579 mmHg 67%
    19:00 -1°C° 0 mm 8 mps 578 mmHg 67%
    20:00 -1°C° 0 mm 9 mps 578 mmHg 68%
    21:00 -3°C° 0.1 mm 9 mps 578 mmHg 69%
    22:00 -2°C° 0.1 mm 8 mps 578 mmHg 69%
    23:00 -4°C° 0.1 mm 8 mps 578 mmHg 70%

    28 February, Thursday

    Time Temperature Precipitation Wind Pressure Humidity
    00:00 -4°C° 0 mm 9 mps 578 mmHg 69%
    01:00 -4°C° 0 mm 9 mps 578 mmHg 68%
    02:00 -4°C° 0 mm 10 mps 578 mmHg 68%
    03:00 -4°C° 0 mm 10 mps 578 mmHg 68%
    04:00 -4°C° 0 mm 10 mps 578 mmHg 68%
    05:00 -5°C° 0 mm 9 mps 579 mmHg 69%
    06:00 -4°C° 0 mm 9 mps 579 mmHg 68%
    07:00 -4°C° 0 mm 9 mps 579 mmHg 66%
    08:00 -4°C° 0 mm 9 mps 579 mmHg 65%
    09:00 -1°C° 0 mm 9 mps 579 mmHg 58%
    10:00 0°C° 0 mm 9 mps 579 mmHg 50%
    11:00 +2°C° 0 mm 9 mps 579 mmHg 43%
    12:00 +2°C° 0 mm 9 mps 578 mmHg 44%
    13:00 +2°C° 0 mm 8 mps 578 mmHg 45%
    14:00 +4°C° 0 mm 8 mps 577 mmHg 46%
    15:00 +3°C° 0.1 mm 7 mps 576 mmHg 49%
    16:00 +2°C° 0.1 mm 7 mps 576 mmHg 53%
    17:00 +2°C° 0.1 mm 6 mps 575 mmHg 56%
    18:00 +1°C° 0.1 mm 6 mps 574 mmHg 62%
    19:00 0°C° 0.1 mm 5 mps 574 mmHg 68%
    20:00 -1°C° 0.1 mm 5 mps 573 mmHg 73%
    21:00 -2°C° 0.5 mm 5 mps 573 mmHg 78%
    22:00 -3°C° 0.5 mm 6 mps 573 mmHg 83%
    23:00 -3°C° 0.5 mm 6 mps 573 mmHg 87%

    1 March, Friday

    Time Temperature Precipitation Wind Pressure Humidity
    00:00 -6°C° 0.4 mm 8 mps 573 mmHg 79%
    01:00 -8°C° 0.4 mm 9 mps 572 mmHg 71%
    02:00 -11°C° 0.4 mm 11 mps 572 mmHg 63%
    03:00 -12°C° 0 mm 10 mps 573 mmHg 58%
    04:00 -13°C° 0 mm 10 mps 573 mmHg 52%
    05:00 -13°C° 0 mm 10 mps 573 mmHg 47%
    06:00 -14°C° 0 mm 11 mps 574 mmHg 45%
    07:00 -14°C° 0 mm 11 mps 574 mmHg 44%
    08:00 -16°C° 0 mm 12 mps 575 mmHg 42%
    09:00 -16°C° 0 mm 12 mps 575 mmHg 47%
    10:00 -16°C° 0 mm 12 mps 576 mmHg 51%
    11:00 -16°C° 0 mm 13 mps 576 mmHg 55%
    12:00 -16°C° 0 mm 13 mps 577 mmHg 56%
    13:00 -16°C° 0 mm 12 mps 577 mmHg 57%
    14:00 -15°C° 0 mm 12 mps 577 mmHg 58%
    15:00 -16°C° 0 mm 11 mps 578 mmHg 57%
    16:00 -15°C° 0 mm 10 mps 578 mmHg 57%
    17:00 -15°C° 0 mm 8 mps 579 mmHg 57%
    18:00 -16°C° 0 mm 8 mps 579 mmHg 59%
    19:00 -15°C° 0 mm 7 mps 579 mmHg 61%
    20:00 -15°C° 0 mm 6 mps 580 mmHg 63%
    21:00 -15°C° 0 mm 7 mps 579 mmHg 61%
    22:00 -17°C° 0 mm 8 mps 579 mmHg 58%
    23:00 -17°C° 0 mm 9 mps 579 mmHg 56%
    Show more